Regional Weather Roundup
Issued by NWS

Home | Current Version | Previous Version | Text Only | Print | Product List | Glossary Off
Versions: 1 2 3 4 5 6 7 8 9 10 11 12 13 14 15 16 17 18 19 20 21 22 23 24 25 26 27 28 29 30 31 32 33 34 35 36 37 38 39 40 41 42 43 44 45 46 47 48 49 50

000
ASUS45 KSLC 210410
RWRUT

UTAH REGIONAL WEATHER ROUNDUP
NATIONAL WEATHER SERVICE SALT LAKE CITY UT
900 PM MST FRI JAN 20 2017

UTZ001>011-023>025-210500-

NORTHERN UTAH

CITY           SKY/WX    TMP DP  RH WIND       PRES   REMARKS
BRIGHAM CITY     N/A     31  27  85 NE3       29.36S
HILL AFB       LGT SNOW  32  30  92 SE6       29.34R VSB 1   WCI  26
LOGAN          CLOUDY    27  26  96 CALM      29.35F FOG
OGDEN          LGT SNOW  32  31  96 SE3       29.34S FOG
SALT LAKE CITY CLOUDY    36  29  75 S15       29.33F WCI  27
TOOELE VALLEY  CLOUDY    32  32 100 N3        29.32S
WENDOVER       CLOUDY    27  23  86 CALM      29.31F
HEBER CITY     CLOUDY    30  25  80 CALM      29.34F
WEST JORDAN    CLOUDY    33  33 100 S15       29.34S WCI  22

$$

UTZ011>015-024>027-210500-

CENTRAL/NORTHEAST UTAH

CITY           SKY/WX    TMP DP  RH WIND       PRES   REMARKS
PROVO AIRPORT  CLOUDY    36  28  73 S9        29.36F WCI  29
MOAB/CANYONLAN CLOUDY    35  33  92 SE9       29.44F WCI  28
DELTA          CLOUDY    32  32 100 S8        29.33S WCI  25
PRICE          LGT SNOW  29  29 100 E3        29.41F VSB 1
ROOSEVELT      CLOUDY    23  19  86 CALM      29.50S
VERNAL         CLOUDY    22  19  89 W5        29.47F WCI  16

$$

UTZ013>016-019>022-027-210500-

SOUTHERN UTAH

CITY           SKY/WX    TMP DP  RH WIND       PRES   REMARKS
BRYCE CANYON   SNOW      26  24  92 SE15      29.36F VSB 1/2 WCI  14
CEDAR CITY     LGT SNOW  31  30  96 SW12      29.30F FOG     WCI  22
MILFORD        LGT SNOW  33  32  96 S8        29.31F FOG     WCI  26
ST GEORGE      CLOUDY    41  34  75 E7        29.37F
HANKSVILLE     CLOUDY    37  32  81 MISG      29.44F
BLANDING       CLOUDY    31  31 100 SE8       29.57F WCI  23

$$

REGIONAL REPORTS     COLORADO/ARIZONA

CITY           SKY/WX    TMP DP  RH WIND       PRES   REMARKS
CRAIG, CO      CLOUDY    26  20  77 E3        29.46F
GRAND JUNCTION CLOUDY    34  30  85 SE8       29.46F WCI  27
RIFLE, CO      CLOUDY    29  27  92 E3        29.48F
MONTROSE, CO   CLOUDY    33  22  63 SE9       29.51F WCI  25
CORTEZ, CO     LGT SNOW  31  31 100 CALM      29.55S VSB 1
COLORADO CITY  CLOUDY    34  34 100 E8        29.41S WCI  27
PAGE, AZ       CLOUDY    39  31  72 SE8       29.41F WCI  33
GRAND CANYON   LGT SNOW  30  30 100 S10       29.42F FOG     WCI  21
KINGMAN, AZ    LGT RAIN  42  38  85 SW14      29.39F
FLAGSTAFF, AZ  HVY SNOW  28  27  96 SW8       29.44F VSB 1/4 WCI  20

$$

REGIONAL REPORTS    NEVADA/IDAHO/WYOMING

CITY           SKY/WX    TMP DP  RH WIND       PRES   REMARKS
LAS VEGAS, NV  MOCLDY    49  37  63 S16G23    29.28F
ELY, NY        FLURRIES  30  25  81 S10       29.25S WCI  21
ELKO, NV       SNOW      30  27  88 E5        29.23R VSB 1/2 WCI  25
POCATELLO, ID  CLOUDY    26  22  84 CALM      29.34S
BURLEY, ID     CLOUDY    32  26  78 NW8       29.27S WCI  25
FORT BRIDGER,  FOG       10  10 100 N3        29.39S VSB 1/4
EVANSTON, WY   CLOUDY    22  14  71 E10       29.33F WCI  11
ROCK SPRINGS,  CLOUDY    19  12  74 SE13      29.39F WCI   6

$$



USA.gov is the U.S. government's official web portal to all federal, state and local government web resources and services.